sat.trackr.live / text

‹ back to catalog

AL YAH 3

NORAD 43174 · 2018-012A

PAYLOAD ACTIVE UNKNOWN

§ Identity

Operator
Country
UAE
Launch date
2018-01-25
Launch site
FRGUI
Launch vehicle
Mass (kg)
RCS (m²)

Purposes: comms

External: N2YO · Heavens-Above · Gunter

§ Orbital elements

Epoch: 2026-05-25T03:38:55.308192Z

Period
1,436.09 min
Inclination
1.4947°
Eccentricity
0.0004231
Mean motion
1.00272038 rev/d
Perigee alt
35,768.7 km
Apogee alt
35,804.4 km
Semi-major
42,164.7 km
B*
0.0000e+0
RAAN
83.3688°
Arg perigee
340.3664°
Mean anomaly
213.6419°
Rev number
3,061

§ Raw data

AL YAH 31 43174U 18012A   26145.15202903 -.00000157  00000+0  00000+0 0  99932 43174   1.4947  83.3688 0004231 340.3664 213.6419  1.00272038 30617

JSON: /api/v1/satellites/43174 · /tle

For live sub-satellite position, see the globe view (requires WebGL).

§ Visibility from observer

Set your observer location to see the next 7 days of passes ≥ 10°. The values pass through the URL so the page stays shareable.

No JS? Fill the form by hand. The geolocation button needs JavaScript.